EDT,Max TemperatureF,Mean TemperatureF,Min TemperatureF,Max Dew PointF,MeanDew PointF,Min DewpointF,Max Humidity, Mean Humidity, Min Humidity, Max Sea Level PressureIn, Mean Sea Level PressureIn, Min Sea Level PressureIn, Max VisibilityMiles, Mean VisibilityMiles, Min VisibilityMiles, Max Wind SpeedMPH, Mean Wind SpeedMPH, Max Gust SpeedMPH,PrecipitationIn, CloudCover, Events, WindDirDegrees
2013-6-1,71,64,57,64,61,57,100,91,78,29.77,29.69,29.63,10,10,5,14,6,28,0.75,6,Thunderstorm,169
2013-6-2,57,48,39,57,44,36,100,89,76,29.98,29.77,29.60,10,9,2,25,11,36,0.09,8,,297
2013-6-3,53,42,32,37,35,32,100,73,47,30.10,30.01,29.97,10,10,10,23,10,29,0.00,2,,294
2013-6-4,64,50,35,37,32,27,93,53,24,30.21,30.18,30.11,10,10,6,14,5,17,0.00,0,,308
2013-6-5,55,52,48,46,42,34,82,69,54,30.24,30.19,30.14,10,10,10,14,6,17,0.00,6,,99
2013-6-6,68,58,48,45,38,30,87,53,26,30.14,30.06,30.00,10,10,2,18,7,26,0.00,4,,66
2013-6-7,73,58,42,43,36,28,93,48,22,30.00,29.96,29.91,10,10,7,15,5,21,0.00,0,,346
2013-6-8,71,58,44,48,40,34,93,54,30,30.07,29.98,29.92,10,10,3,9,3,,0.00,0,,293
2013-6-9,75,60,46,50,43,36,87,53,29,30.15,30.09,30.05,10,10,10,20,4,24,0.00,0,,128
2013-6-10,69,63,57,61,54,48,94,73,60,30.05,29.92,29.85,10,10,9,18,11,22,0.00,5,,98
2013-6-11,69,64,59,64,62,59,100,92,78,29.89,29.85,29.83,10,10,1,9,4,,0.80,8,Thunderstorm,142
2013-6-12,75,63,51,59,53,48,100,74,41,29.91,29.86,29.79,10,6,0,9,3,,0.00,4,,316
2013-6-13,71,60,48,57,51,45,100,75,53,30.04,29.87,29.75,10,10,10,22,10,26,0.00,1,,328
2013-6-14,68,57,46,46,37,27,87,52,21,30.16,30.09,30.04,10,10,10,12,6,,0.00,0,,340
2013-6-15,71,56,42,59,44,34,100,63,31,30.05,29.97,29.85,10,9,3,12,2,17,0.08,4,,193
2013-6-16,71,61,51,63,57,50,100,89,60,29.84,29.78,29.72,10,6,0,24,6,33,0.56,6,Thunderstorm,270
2013-6-17,64,55,46,52,48,43,100,81,56,30.04,29.94,29.83,10,9,0,12,6,,0.00,6,,345
2013-6-18,66,54,42,43,40,36,100,59,32,30.14,30.10,30.03,10,10,9,15,6,20,0.00,0,,353
2013-6-19,71,56,42,46,42,36,93,59,28,30.19,30.14,30.09,10,10,10,14,5,20,0.00,0,,227
2013-6-20,75,62,48,57,50,45,93,70,41,30.17,30.14,30.10,10,10,10,10,4,,0.00,5,,181
2013-6-21,66,62,59,61,57,54,100,86,73,30.18,30.09,29.95,10,9,2,22,7,30,1.07,7,,95
2013-6-22,71,65,59,64,62,57,100,94,78,30.08,30.02,29.94,10,5,0,10,5,17,0.03,8,,306
2013-6-23,80,70,60,68,63,59,100,90,61,30.05,29.95,29.86,10,5,0,12,7,17,0.08,6,,149
2013-6-24,80,71,62,68,66,61,100,82,61,29.95,29.90,29.85,10,8,0,13,5,21,0.00,3,,219
2013-6-25,82,72,62,70,65,59,100,85,54,29.87,29.82,29.80,10,9,4,12,4,16,0.06,3,Thunderstorm,228
2013-6-26,86,72,59,66,61,54,100,72,33,29.83,29.80,29.76,10,9,3,9,5,,0.00,0,Thunderstorm,223
2013-6-27,75,68,62,68,64,61,100,89,73,29.79,29.74,29.68,10,10,3,16,5,22,0.61,6,Thunderstorm,126
2013-6-28,71,66,60,66,62,59,100,91,73,29.69,29.64,29.62,10,9,0,17,4,22,0.07,7,,34
2013-6-29,73,65,57,61,57,54,100,76,57,29.82,29.71,29.66,10,10,10,14,7,17,0.01,4,,340
2013-6-30,73,64,55,54,44,37,77,51,33,30.06,29.96,29.83,10,10,10,20,8,25,0.00,0,,340